Flag for Argentina Weather past 2 weeks in Bahía Blanca, Buenos Aires, Argentina

Now
61 °F

Passing clouds.


Feels Like: 61 °F
Forecast: 65 / 95 °F
Wind: No wind

Location: Mar Del Plata Aerodrome

Current Time: Dec 17, 2014 at 9:58:35 PM

Latest Report: Dec 17, 2014 at 9:00 PM


Visibility: N/A

Pressure: 29.92 "Hg

Humidity: 68%

Dew point: 50 °F

Location of Bahía BlancaLocation

Historic Weather in Bahía Blanca — Graph

°F

Bahía Blanca temperature yesterday

Maximum temperature yesterday: 82 °F (at 2:00 PM)
Minimum temperature yesterday: 64 °F (at 3:00 AM)
Average temperature yesterday: 70 °F

Past Weeks' High & Low Weather Summary

 TemperatureHumidityPressure
High93 °F (Dec 12, 8:00 AM)100% (Dec 3, 6:00 AM)30.15 "Hg (Dec 3, 6:00 AM)
Low43 °F (Dec 11, 5:00 AM)21% (Dec 5, 3:00 PM)29.50 "Hg (Dec 9, 8:00 PM)
Average67 °F69%29.91 "Hg
* Reported Dec 2 8:00 PM — Dec 17 8:00 PM, Bahía Blanca, Weather by CustomWeather, © 2014

Note: Actual official high and low records may vary slightly from our data, if they occured in-between our weather recording intervals... More about our weather records

Advertising

Bahía Blanca weather history for previous 24 hours

 ConditionsComfort  
Time TempWeatherWind HumidityBarometerVisibility
8:00 PM
Dec 17
64 °FPassing clouds.7 mph60%29.92 "HgN/A
7:00 PM66 °FScattered clouds.13 mph64%29.89 "HgN/A
6:00 PM68 °FPassing clouds.12 mph64%29.89 "HgN/A
5:00 PM70 °FPassing clouds.14 mph60%29.89 "HgN/A
4:00 PM72 °FPassing clouds.14 mph53%29.89 "HgN/A
3:00 PM73 °FPassing clouds.15 mph53%29.89 "HgN/A
2:00 PM73 °FBroken clouds.14 mph57%29.89 "HgN/A
1:00 PM75 °FBroken clouds.16 mph54%29.89 "HgN/A
12:00 PM77 °FBroken clouds.13 mph57%29.89 "HgN/A
11:00 AM77 °FScattered clouds.12 mph61%29.86 "HgN/A
10:00 AM75 °FSunny.12 mph65%29.89 "Hg10 mi
9:00 AM73 °FSunny.7 mph65%29.89 "Hg10 mi
8:00 AM70 °FSunny.7 mph64%29.89 "Hg10 mi
7:00 AM68 °FSunny.6 mph69%29.89 "Hg10 mi
6:00 AM61 °FSunny.3 mph88%29.89 "Hg10 mi
5:00 AM61 °FSunny.3 mph88%29.86 "Hg10 mi
4:00 AM61 °FClear.5 mph94%29.86 "Hg10 mi
3:00 AM63 °FPassing clouds.3 mph83%29.89 "HgN/A
2:00 AM61 °FPartly cloudy.6 mph88%29.89 "HgN/A
1:00 AM61 °FPartly cloudy.7 mph88%29.92 "HgN/A
12:00 AM63 °FPartly cloudy.5 mph88%29.92 "HgN/A
11:00 PM
Dec 16
64 °FPartly cloudy.7 mph78%29.92 "HgN/A
10:00 PM64 °FThunderstorms. Partly cloudy.5 mph83%29.92 "Hg6 mi
9:00 PM64 °FThunderstorms. Partly cloudy.6 mph78%29.92 "Hg6 mi
Weather by CustomWeather, © 2014

See weather overviewHow to use our weather pages